This is the latest recevied weather packets stored in our database for station/object W6SNO-1. If no packets are shown the sender has not sent any weather packets the latest 10 day(s).
| Time | Temp. | Humidity | Pressure | Rain* | Wind** | Luminosity | Snow |
|---|---|---|---|---|---|---|---|
| 1787776446 | 30.56° C | 31% | 1015.1 hPa | 0 mm | - | 741 W/m² | - |
| 1787776143 | 30.56° C | 30% | 1015.3 hPa | 0 mm | - | 744 W/m² | - |
| 1787775838 | 30° C | 35% | 1015.3 hPa | 0 mm | - | 747 W/m² | - |
| 1787775533 | 30° C | 33% | 1015.4 hPa | 0 mm | - | 748 W/m² | - |
| 1787775231 | 30° C | 33% | 1015.6 hPa | 0 mm | - | 748 W/m² | - |
| 1787774931 | 29.44° C | 35% | 1015.6 hPa | 0 mm | - | 749 W/m² | - |
| 1787774630 | 29.44° C | 36% | 1015.6 hPa | 0 mm | - | 750 W/m² | - |
| 1787774329 | 28.89° C | 39% | 1015.5 hPa | 0 mm | - | 749 W/m² | - |
| 1787774024 | 28.89° C | 38% | 1015.6 hPa | 0 mm | - | 749 W/m² | - |
| 1787773723 | 28.33° C | 36% | 1015.7 hPa | 0 mm | - | 748 W/m² | - |
| 1787773418 | 28.89° C | 37% | 1015.8 hPa | 0 mm | - | 747 W/m² | - |
| 1787773113 | 28.33° C | 39% | 1015.8 hPa | 0 mm | - | 744 W/m² | - |
| 1787772809 | 28.33° C | 39% | 1015.9 hPa | 0 mm | - | 742 W/m² | - |
| 1787772507 | 28.33° C | 41% | 1015.9 hPa | 0 mm | - | 738 W/m² | - |
| 1787772207 | 27.78° C | 38% | 1016 hPa | 0 mm | - | 735 W/m² | - |
| 1787771906 | 27.78° C | 41% | 1016.1 hPa | 0 mm | - | 732 W/m² | - |
| 1787771600 | 27.78° C | 44% | 1016.1 hPa | 0 mm | - | 724 W/m² | - |
| 1787771294 | 26.67° C | 45% | 1016 hPa | 0 mm | - | 720 W/m² | - |
| 1787770990 | 26.67° C | 45% | 1016.3 hPa | 0 mm | - | 718 W/m² | - |
| 1787770688 | 26.67° C | 47% | 1016.3 hPa | 0 mm | - | 711 W/m² | - |
| 1787770383 | 26.67° C | 48% | 1016.3 hPa | 0 mm | - | 706 W/m² | - |
| 1787770082 | 26.11° C | 50% | 1016.2 hPa | 0 mm | - | 699 W/m² | - |
| 1787769777 | 25.56° C | 52% | 1016.5 hPa | 0 mm | - | 692 W/m² | - |
| 1787769475 | 25° C | 52% | 1016.3 hPa | 0 mm | - | 685 W/m² | - |
| 1787769171 | 25° C | 54% | 1016.4 hPa | 0 mm | - | 678 W/m² | - |
* Rain latest hour (hover to see other rain measurements)
** Current wind speed in m/s (hover to see current wind gust speed)